| time (UTC) | temp F | wind direction | speed MPH | gust MPH | rain 1hr in | rain 24hr in | rain mn in | humidity % | barometer mb |
| 20260509202559 | 69 | 180 | 1.0 | 6.0 | 0.00 | 0.00 | 0.00 | 52 | 1002.9 |
| 20260509201600 | 69 | 225 | 1.0 | 4.0 | 0.00 | 0.00 | 0.00 | 52 | 1003.1 |
| 20260509200540 | 69 | 158 | 1.0 | 4.0 | 0.00 | 0.00 | 0.00 | 56 | 1003.3 |
| 20260509195520 | 69 | 158 | 1.0 | 6.0 | 0.00 | 0.00 | 0.00 | 51 | 1003.6 |
| 20260509194519 | 69 | 203 | 1.0 | 6.0 | 0.00 | 0.00 | 0.00 | 51 | 1003.6 |
| 20260509193539 | 70 | 203 | 1.0 | 8.0 | 0.00 | 0.00 | 0.00 | 54 | 1003.3 |
| 20260509192519 | 69 | 158 | 1.0 | 7.0 | 0.00 | 0.00 | 0.00 | 54 | 1003.6 |
| 20260509191540 | 69 | 135 | 1.0 | 6.0 | 0.00 | 0.00 | 0.00 | 54 | 1003.7 |
| 20260509190519 | 69 | 180 | 2.0 | 8.0 | 0.00 | 0.00 | 0.00 | 53 | 1003.9 |
| 20260509185520 | 69 | 158 | 2.0 | 8.0 | 0.00 | 0.00 | 0.00 | 55 | 1004.0 |
| 20260509184519 | 70 | 158 | 5.0 | 12.0 | 0.00 | 0.00 | 0.00 | 56 | 1004.2 |
| 20260509183519 | 70 | 180 | 1.0 | 6.0 | 0.00 | 0.00 | 0.00 | 61 | 1004.3 |
| 20260509182519 | 69 | 180 | 2.0 | 7.0 | 0.00 | 0.00 | 0.00 | 53 | 1004.5 |
| 20260509181519 | 69 | 203 | 1.0 | 6.0 | 0.00 | 0.00 | 0.00 | 51 | 1004.6 |
| 20260509180539 | 68 | 203 | 1.0 | 10.0 | 0.00 | 0.00 | 0.00 | 51 | 1004.6 |
| 20260509175519 | 68 | 225 | 2.0 | 7.0 | 0.00 | 0.00 | 0.00 | 54 | 1004.6 |
| 20260509174519 | 68 | 180 | 1.0 | 5.0 | 0.00 | 0.00 | 0.00 | 57 | 1004.7 |
| 20260509173520 | 69 | 135 | 2.0 | 6.0 | 0.00 | 0.00 | 0.00 | 59 | 1004.8 |
| 20260509172519 | 67 | 158 | 1.0 | 7.0 | 0.00 | 0.00 | 0.00 | 58 | 1004.9 |
| 20260509171539 | 68 | 158 | 1.0 | 5.0 | 0.00 | 0.00 | 0.00 | 56 | 1005.0 |
| 20260509170519 | 68 | 158 | 2.0 | 9.0 | 0.00 | 0.00 | 0.00 | 62 | 1004.9 |
| 20260509165519 | 67 | 0.0 | 4.0 | 0.00 | 0.00 | 0.00 | 62 | 1005.2 | |
| 20260509164519 | 65 | 0.0 | 3.0 | 0.00 | 0.00 | 0.00 | 61 | 1005.4 | |
| 20260509163539 | 65 | 203 | 1.0 | 3.0 | 0.00 | 0.00 | 0.00 | 62 | 1005.5 |
| 20260509162519 | 66 | 248 | 2.0 | 6.0 | 0.00 | 0.00 | 0.00 | 64 | 1005.7 |
| 20260509161519 | 65 | 0.0 | 3.0 | 0.00 | 0.00 | 0.00 | 65 | 1005.9 | |
| 20260509160520 | 64 | 180 | 1.0 | 4.0 | 0.00 | 0.00 | 0.00 | 64 | 1005.9 |
| 20260509155519 | 64 | 158 | 1.0 | 4.0 | 0.00 | 0.00 | 0.00 | 65 | 1006.0 |
| 20260509154519 | 64 | 180 | 3.0 | 9.0 | 0.00 | 0.00 | 0.00 | 63 | 1006.0 |
| 20260509153519 | 64 | 0.0 | 3.0 | 0.00 | 0.00 | 0.00 | 66 | 1006.1 | |
| 20260509152540 | 63 | 180 | 1.0 | 3.0 | 0.00 | 0.00 | 0.00 | 66 | 1006.2 |
| 20260509151519 | 62 | 0.0 | 0.0 | 0.00 | 0.00 | 0.00 | 71 | 1006.2 | |
| 20260509150520 | 60 | 0.0 | 3.0 | 0.00 | 0.00 | 0.00 | 73 | 1006.3 | |
| 20260509145539 | 60 | 0.0 | 2.0 | 0.00 | 0.00 | 0.00 | 73 | 1006.3 | |
| 20260509144519 | 59 | 113 | 1.0 | 4.0 | 0.00 | 0.00 | 0.00 | 75 | 1006.4 |
| 20260509143519 | 58 | 113 | 1.0 | 3.0 | 0.00 | 0.00 | 0.00 | 78 | 1006.5 |
| 20260509142519 | 57 | 0.0 | 1.0 | 0.00 | 0.00 | 0.00 | 81 | 1006.5 | |
| 20260509141519 | 56 | 0.0 | 4.0 | 0.00 | 0.00 | 0.00 | 82 | 1006.6 | |
| 20260509140519 | 54 | 0.0 | 3.0 | 0.00 | 0.00 | 0.00 | 85 | 1006.7 | |
| 20260509135519 | 53 | 0.0 | 3.0 | 0.00 | 0.00 | 0.00 | 89 | 1006.8 | |
| 20260509134539 | 52 | 0.0 | 1.0 | 0.00 | 0.00 | 0.00 | 91 | 1007.0 | |
| 20260509133539 | 50 | 0.0 | 3.0 | 0.00 | 0.00 | 0.00 | 92 | 1007.3 | |
| 20260509132519 | 49 | 0.0 | 0.0 | 0.00 | 0.00 | 0.00 | 94 | 1007.4 | |
| 20260509131519 | 48 | 0.0 | 0.0 | 0.00 | 0.00 | 0.00 | 94 | 1007.4 | |
| 20260509130519 | 47 | 0.0 | 0.0 | 0.00 | 0.00 | 0.00 | 95 | 1007.5 | |
| 20260509125519 | 46 | 0.0 | 2.0 | 0.00 | 0.01 | 0.00 | 95 | 1007.6 | |
| 20260509124519 | 45 | 0.0 | 0.0 | 0.00 | 0.02 | 0.00 | 94 | 1007.7 | |
| 20260509123519 | 44 | 0.0 | 0.0 | 0.00 | 0.02 | 0.00 | 94 | 1007.7 | |
| 20260509122519 | 43 | 0.0 | 0.0 | 0.00 | 0.04 | 0.00 | 94 | 1007.7 | |
| 20260509121520 | 42 | 0.0 | 0.0 | 0.00 | 0.04 | 0.00 | 93 | 1007.7 | |
| 20260509120540 | 41 | 0.0 | 0.0 | 0.00 | 0.05 | 0.00 | 92 | 1007.9 | |
| 20260509115519 | 40 | 0.0 | 0.0 | 0.00 | 0.05 | 0.00 | 92 | 1007.9 | |
| 20260509114539 | 40 | 0.0 | 0.0 | 0.00 | 0.05 | 0.00 | 91 | 1008.0 | |
| 20260509113519 | 39 | 0.0 | 0.0 | 0.00 | 0.05 | 0.00 | 91 | 1008.0 | |
| 20260509112519 | 39 | 0.0 | 0.0 | 0.00 | 0.05 | 0.00 | 90 | 1008.1 | |
| 20260509111519 | 38 | 0.0 | 0.0 | 0.00 | 0.05 | 0.00 | 90 | 1008.1 | |
| 20260509110520 | 38 | 0.0 | 0.0 | 0.00 | 0.05 | 0.00 | 89 | 1008.2 | |
| 20260509105519 | 38 | 0.0 | 0.0 | 0.00 | 0.05 | 0.00 | 89 | 1008.1 | |
| 20260509104519 | 37 | 0.0 | 0.0 | 0.00 | 0.05 | 0.00 | 89 | 1008.1 | |
| 20260509103519 | 37 | 0.0 | 0.0 | 0.00 | 0.05 | 0.00 | 88 | 1008.0 | |
| 20260509102519 | 37 | 0.0 | 0.0 | 0.00 | 0.05 | 0.00 | 88 | 1007.9 | |
| 20260509101539 | 37 | 0.0 | 0.0 | 0.00 | 0.05 | 0.00 | 88 | 1007.9 | |
| 20260509100519 | 37 | 0.0 | 0.0 | 0.00 | 0.05 | 0.00 | 87 | 1007.9 | |
| 20260509095519 | 37 | 0.0 | 0.0 | 0.00 | 0.05 | 0.00 | 87 | 1008.0 | |
| 20260509094519 | 37 | 0.0 | 0.0 | 0.00 | 0.05 | 0.00 | 87 | 1007.9 | |
| 20260509093519 | 37 | 0.0 | 0.0 | 0.00 | 0.05 | 0.00 | 87 | 1008.0 | |
| 20260509092519 | 37 | 0.0 | 0.0 | 0.00 | 0.05 | 0.00 | 87 | 1008.1 | |
| 20260509091540 | 37 | 0.0 | 0.0 | 0.00 | 0.05 | 0.00 | 87 | 1008.0 | |
| 20260509090519 | 37 | 0.0 | 0.0 | 0.00 | 0.05 | 0.00 | 87 | 1008.1 | |
| 20260509085519 | 37 | 0.0 | 0.0 | 0.00 | 0.05 | 0.00 | 87 | 1008.2 | |
| 20260509084519 | 37 | 0.0 | 0.0 | 0.00 | 0.05 | 0.00 | 86 | 1008.1 | |
| 20260509083519 | 37 | 0.0 | 0.0 | 0.00 | 0.05 | 0.00 | 86 | 1008.2 | |
| 20260509082539 | 37 | 0.0 | 0.0 | 0.00 | 0.05 | 0.00 | 86 | 1008.4 | |
| 20260509081519 | 37 | 0.0 | 0.0 | 0.00 | 0.05 | 0.00 | 85 | 1008.5 | |
| 20260509080519 | 37 | 0.0 | 0.0 | 0.00 | 0.05 | 0.00 | 85 | 1008.5 | |
| 20260509075519 | 37 | 0.0 | 0.0 | 0.00 | 0.05 | 0.00 | 84 | 1008.5 | |
| 20260509074519 | 37 | 0.0 | 0.0 | 0.00 | 0.05 | 0.00 | 84 | 1008.6 | |
| 20260509073519 | 37 | 0.0 | 0.0 | 0.00 | 0.05 | 0.00 | 84 | 1008.7 | |
| 20260509072519 | 37 | 0.0 | 0.0 | 0.00 | 0.05 | 0.00 | 84 | 1008.8 | |
| 20260509071519 | 37 | 0.0 | 0.0 | 0.00 | 0.05 | 0.00 | 83 | 1008.8 | |
| 20260509070628 | 37 | 0.0 | 0.0 | 0.00 | 0.05 | 0.00 | 83 | 1009.0 | |
| 20260509065519 | 38 | 0.0 | 0.0 | 0.00 | 0.05 | 0.00 | 83 | 1009.0 | |
| 20260509064519 | 38 | 0.0 | 0.0 | 0.00 | 0.05 | 0.00 | 83 | 1009.1 | |
| 20260509063519 | 38 | 0.0 | 0.0 | 0.00 | 0.05 | 0.00 | 83 | 1009.2 | |
| 20260509062539 | 38 | 0.0 | 0.0 | 0.00 | 0.05 | 0.00 | 83 | 1009.4 | |
| 20260509061519 | 38 | 0.0 | 0.0 | 0.00 | 0.05 | 0.00 | 82 | 1009.4 | |
| 20260509060519 | 39 | 0.0 | 0.0 | 0.00 | 0.05 | 0.00 | 82 | 1009.5 | |
| 20260509055559 | 39 | 0.0 | 0.0 | 0.00 | 0.05 | 0.00 | 83 | 1009.6 | |
| 20260509054519 | 39 | 0.0 | 0.0 | 0.00 | 0.05 | 0.00 | 82 | 1009.5 | |
| 20260509053519 | 39 | 0.0 | 0.0 | 0.00 | 0.05 | 0.00 | 81 | 1009.7 | |
| 20260509052519 | 39 | 0.0 | 0.0 | 0.00 | 0.05 | 0.00 | 81 | 1009.9 | |
| 20260509051519 | 39 | 0.0 | 0.0 | 0.00 | 0.05 | 0.00 | 80 | 1009.9 | |
| 20260509050519 | 39 | 0.0 | 0.0 | 0.00 | 0.05 | 0.00 | 80 | 1009.9 | |
| 20260509045519 | 40 | 0.0 | 0.0 | 0.00 | 0.05 | 0.00 | 79 | 1010.0 | |
| 20260509044519 | 40 | 0.0 | 0.0 | 0.00 | 0.05 | 0.00 | 78 | 1009.9 | |
| 20260509043519 | 40 | 0.0 | 0.0 | 0.00 | 0.05 | 0.00 | 78 | 1010.2 | |
| 20260509042539 | 40 | 0.0 | 0.0 | 0.00 | 0.06 | 0.00 | 78 | 1010.3 | |
| 20260509041519 | 40 | 0.0 | 0.0 | 0.00 | 0.06 | 0.00 | 78 | 1010.3 | |
| 20260509040519 | 41 | 0.0 | 0.0 | 0.00 | 0.06 | 0.00 | 78 | 1010.4 | |
| 20260509035518 | 41 | 0.0 | 0.0 | 0.00 | 0.06 | 0.06 | 76 | 1010.4 | |
| 20260509034518 | 41 | 0.0 | 0.0 | 0.00 | 0.06 | 0.06 | 75 | 1010.3 | |
| 20260509033518 | 42 | 0.0 | 0.0 | 0.00 | 0.06 | 0.06 | 74 | 1010.3 | |
| 20260509032518 | 42 | 0.0 | 0.0 | 0.00 | 0.06 | 0.06 | 74 | 1010.3 | |
| 20260509031518 | 43 | 0.0 | 0.0 | 0.00 | 0.06 | 0.06 | 74 | 1010.4 | |
| 20260509030518 | 43 | 0.0 | 0.0 | 0.00 | 0.06 | 0.06 | 72 | 1010.4 | |
| 20260509025538 | 43 | 0.0 | 0.0 | 0.00 | 0.06 | 0.06 | 72 | 1010.5 | |
| 20260509024558 | 44 | 0.0 | 0.0 | 0.00 | 0.06 | 0.06 | 72 | 1010.4 | |
| 20260509023518 | 44 | 0.0 | 0.0 | 0.00 | 0.06 | 0.06 | 70 | 1010.4 | |
| 20260509022539 | 45 | 0.0 | 0.0 | 0.00 | 0.06 | 0.06 | 70 | 1010.5 | |
| 20260509021518 | 45 | 0.0 | 0.0 | 0.00 | 0.06 | 0.06 | 69 | 1010.4 | |
| 20260509020522 | 46 | 0.0 | 0.0 | 0.00 | 0.06 | 0.06 | 68 | 1010.5 | |
| 20260509015538 | 47 | 0.0 | 0.0 | 0.00 | 0.06 | 0.06 | 68 | 1010.4 | |
| 20260509014518 | 47 | 0.0 | 0.0 | 0.00 | 0.06 | 0.06 | 67 | 1010.5 | |
| 20260509013518 | 48 | 0.0 | 0.0 | 0.00 | 0.06 | 0.06 | 66 | 1010.4 | |
| 20260509012518 | 49 | 0.0 | 0.0 | 0.00 | 0.06 | 0.06 | 64 | 1010.4 | |
| 20260509011518 | 49 | 0.0 | 0.0 | 0.00 | 0.06 | 0.06 | 65 | 1010.3 | |
| 20260509010518 | 50 | 0.0 | 0.0 | 0.00 | 0.06 | 0.06 | 64 | 1010.2 | |
| 20260509005538 | 51 | 0.0 | 0.0 | 0.00 | 0.06 | 0.06 | 62 | 1009.9 | |
| 20260509004518 | 52 | 0.0 | 0.0 | 0.00 | 0.06 | 0.06 | 61 | 1009.7 | |
| 20260509003520 | 52 | 0.0 | 0.0 | 0.00 | 0.06 | 0.06 | 59 | 1009.6 | |
| 20260509002520 | 53 | 0.0 | 0.0 | 0.00 | 0.06 | 0.06 | 58 | 1009.5 | |
| 20260509001540 | 54 | 0.0 | 0.0 | 0.00 | 0.06 | 0.06 | 56 | 1009.5 | |
| 20260509000520 | 54 | 0.0 | 0.0 | 0.00 | 0.06 | 0.06 | 54 | 1009.4 | |
| 20260508235520 | 55 | 0.0 | 0.0 | 0.00 | 0.06 | 0.06 | 53 | 1009.5 | |
| 20260508234520 | 55 | 0.0 | 0.0 | 0.00 | 0.06 | 0.06 | 54 | 1009.4 | |
| 20260508233520 | 56 | 0.0 | 0.0 | 0.00 | 0.06 | 0.06 | 53 | 1009.3 | |
| 20260508232520 | 56 | 0.0 | 0.0 | 0.00 | 0.06 | 0.06 | 51 | 1009.3 | |
| 20260508231520 | 57 | 0.0 | 0.0 | 0.00 | 0.06 | 0.06 | 48 | 1009.3 | |
| 20260508230540 | 57 | 0.0 | 0.0 | 0.00 | 0.06 | 0.06 | 48 | 1009.3 | |
| 20260508225520 | 57 | 0.0 | 0.0 | 0.00 | 0.06 | 0.06 | 46 | 1009.3 | |
| 20260508224520 | 57 | 0.0 | 2.0 | 0.00 | 0.06 | 0.06 | 46 | 1009.3 | |
| 20260508223520 | 58 | 0.0 | 0.0 | 0.00 | 0.06 | 0.06 | 45 | 1009.3 | |
| 20260508222519 | 58 | 23 | 1.0 | 4.0 | 0.00 | 0.06 | 0.06 | 44 | 1009.2 |
| 20260508221520 | 58 | 23 | 1.0 | 4.0 | 0.00 | 0.06 | 0.06 | 44 | 1009.3 |
| 20260508220520 | 57 | 0.0 | 0.0 | 0.00 | 0.06 | 0.06 | 44 | 1009.2 | |
| 20260508215520 | 57 | 0.0 | 0.0 | 0.00 | 0.06 | 0.06 | 41 | 1009.3 | |
| 20260508214520 | 58 | 0.0 | 1.0 | 0.00 | 0.06 | 0.06 | 44 | 1009.4 | |
| 20260508213520 | 58 | 270 | 1.0 | 6.0 | 0.00 | 0.06 | 0.06 | 45 | 1009.5 |
| 20260508212520 | 58 | 0.0 | 2.0 | 0.00 | 0.06 | 0.06 | 47 | 1009.7 | |
| 20260508211520 | 58 | 23 | 1.0 | 5.0 | 0.00 | 0.06 | 0.06 | 43 | 1009.7 |
| 20260508210540 | 58 | 0.0 | 2.0 | 0.00 | 0.06 | 0.06 | 47 | 1009.6 | |
| 20260508205520 | 58 | 0.0 | 3.0 | 0.00 | 0.06 | 0.06 | 43 | 1009.7 | |
| 20260508204520 | 59 | 23 | 3.0 | 9.0 | 0.00 | 0.06 | 0.06 | 50 | 1009.8 |
| 20260508203520 | 57 | 248 | 1.0 | 5.0 | 0.00 | 0.06 | 0.06 | 45 | 1010.0 |